Flag for Germany Weather past 2 weeks in Neunkirchen (Saar), Saarland, Germany

Now
52 °F

Broken clouds.


Feels Like: 48 °F
Forecast: 38 / 68 °F
Wind: 10 mph from West

Location: Saarbruecken / Ensheim

Current Time: May 30, 2015 at 10:53:28 AM

Latest Report: May 30, 2015 at 10:20 AM


Visibility: N/A

Pressure: 30.01 "Hg

Humidity: 77%

Dew point: 45 °F

Location of Neunkirchen (Saar)Location

Historic Weather in Neunkirchen (Saar) — Graph

°F

Neunkirchen (Saar) temperature yesterday

Maximum temperature yesterday: 63 °F (at 2:20 PM)
Minimum temperature yesterday: 46 °F (at 4:50 AM)
Average temperature yesterday: 55 °F

Past Weeks' High & Low Weather Summary

 TemperatureHumidityPressure
High68 °F (May 18, 3:20 PM)100% (May 15, 9:20 AM)30.33 "Hg (May 15, 9:20 AM)
Low37 °F (May 21, 4:20 AM)34% (May 21, 7:20 PM)29.74 "Hg (May 18, 6:20 PM)
Average54 °F67%30.07 "Hg
* Reported May 15 9:20 AM — May 30 9:50 AM, Neunkirchen (Saar), Weather by CustomWeather, © 2015

Note: Actual official high and low records may vary slightly from our data, if they occured in-between our weather recording intervals... More about our weather records

Advertising

Neunkirchen (Saar) weather history for previous 24 hours

 ConditionsComfort  
Time TempWeatherWind HumidityBarometerVisibility
9:50 AM
Sat, May 30
52 °FSprinkles. Broken clouds.14 mph77%29.98 "HgN/A
9:20 AM52 °FBroken clouds.10 mph77%29.98 "HgN/A
8:50 AM50 °FBroken clouds.10 mph82%29.98 "HgN/A
8:20 AM50 °FPartly sunny.13 mph82%29.98 "HgN/A
7:50 AM50 °FPartly sunny.12 mph82%29.95 "HgN/A
7:20 AM50 °FBroken clouds.9 mph82%29.95 "HgN/A
6:50 AM48 °FBroken clouds.9 mph87%29.92 "HgN/A
6:20 AM48 °FLight rain. Partly cloudy.12 mph87%29.92 "HgN/A
5:50 AM50 °FLight rain. Partly cloudy.15 mph82%29.92 "HgN/A
5:20 AM50 °FLight rain. Partly cloudy.12 mph88%29.89 "HgN/A
4:50 AM50 °FSprinkles. Partly cloudy.12 mph94%29.89 "HgN/A
4:20 AM52 °FSprinkles. Passing clouds.14 mph88%29.89 "Hg5 mi
3:50 AM54 °FSprinkles. Partly cloudy.14 mph82%29.89 "HgN/A
3:20 AM52 °FPassing clouds.12 mph88%29.86 "HgN/A
2:50 AM54 °FClear.13 mph82%29.86 "Hg10 mi
2:20 AM54 °FPassing clouds.13 mph82%29.86 "HgN/A
1:50 AM54 °FClear.13 mph77%29.86 "Hg10 mi
1:20 AM54 °FPassing clouds.12 mph77%29.86 "HgN/A
12:50 AM55 °FPassing clouds.13 mph72%29.86 "HgN/A
12:20 AM55 °FPassing clouds.12 mph72%29.86 "HgN/A
11:50 PM
Fri, May 29
55 °FClear.8 mph67%29.86 "Hg10 mi
11:20 PM55 °FClear.8 mph67%29.86 "Hg10 mi
10:20 PM55 °FSunny.9 mph72%29.89 "Hg10 mi
9:50 PM55 °FSunny.7 mph72%29.89 "Hg10 mi
9:20 PM55 °FSunny.8 mph72%29.86 "Hg10 mi
8:50 PM55 °FBroken clouds.10 mph72%29.86 "HgN/A
8:20 PM57 °FPartly sunny.10 mph63%29.86 "HgN/A
7:50 PM57 °FPartly sunny.15 mph63%29.86 "HgN/A
7:20 PM57 °FPartly sunny.16 mph67%29.86 "HgN/A
6:50 PM57 °FPartly sunny.14 mph72%29.86 "HgN/A
6:20 PM59 °FBroken clouds.18 mph68%29.86 "HgN/A
5:50 PM59 °FBroken clouds.16 mph77%29.86 "HgN/A
5:20 PM59 °FBroken clouds.17 mph82%29.86 "HgN/A
4:50 PM59 °FBroken clouds.13 mph82%29.86 "HgN/A
4:20 PM57 °FBroken clouds.10 mph88%29.86 "HgN/A
3:50 PM57 °FPartly sunny.7 mph88%29.86 "HgN/A
3:20 PM55 °FLight rain. Partly sunny.9 mph88%29.86 "Hg4 mi
2:50 PM57 °FThunderstorms. Broken clouds.16 mph77%29.86 "Hg4 mi
2:20 PM63 °FBroken clouds.15 mph64%29.86 "HgN/A
1:50 PM61 °FBroken clouds.13 mph68%29.86 "HgN/A
1:20 PM59 °FBroken clouds.10 mph72%29.89 "HgN/A
12:50 PM59 °FBroken clouds.8 mph72%29.89 "HgN/A
12:20 PM59 °FBroken clouds.10 mph72%29.89 "HgN/A
11:50 AM59 °FBroken clouds.10 mph72%29.89 "HgN/A
11:20 AM57 °FPartly sunny.9 mph72%29.92 "HgN/A
10:50 AM57 °FPartly sunny.10 mph72%29.92 "HgN/A
10:20 AM59 °FPartly sunny.9 mph68%29.92 "HgN/A
Weather by CustomWeather, © 2015

See weather overviewHow to use our weather pages